This demonstration page uses our WeatherBlox Daily Observations layout. Learn more.

39.29038, -76.61219

Hourly Observations for February 15, 2020

Temp ( °F °C ) Dew Point ( °F °C ) Humidity (%) Winds ( mph kmh ) Pressure ( in mb ) Visibility ( mi km ) Precip ( " mm )
12:54 am 00:54 undefined 26 -3.3 7 -13.9 44 44 undefined N/A 30.55 1034 N/A 0 0
1:54 am 01:54 undefined 24 -4.4 2 -16.7 38 38 undefined N/A 30.66 1038 N/A 0 0
2:54 am 02:54 undefined 24 -4.4 2 -16.7 38 38 undefined N/A 30.62 1037 N/A 0 0
3:54 am 03:54 undefined 23 -5 3 -16.1 42 42 undefined N/A 30.62 1037 N/A 0 0
4:36 am 04:36 undefined 22 -5.6 2 -16.7 42 42 undefined N/A 30.68 1039 N/A 0 0
4:54 am 04:54 undefined 22 -5.6 3 -16.1 44 44 undefined N/A 30.67 1039 N/A 0 0
5:54 am 05:54 undefined 21 -6.1 3 -16.1 45 45 undefined N/A 30.65 1038 N/A 0 0
6:54 am 06:54 undefined 20 -6.7 3 -16.1 48 48 undefined N/A 30.66 1038 N/A 0 0
7:54 am 07:54 undefined 21 -6.1 2 -16.7 43 43 undefined N/A 30.68 1039 N/A 0 0
8:54 am 08:54 undefined 23 -5 4 -15.6 44 44 undefined N/A 30.68 1039 N/A 0 0
9:54 am 09:54 undefined 26 -3.3 8 -13.3 46 46 undefined N/A 30.67 1039 N/A 0 0
10:54 am 10:54 undefined 30 -1.1 9 -12.8 41 41 undefined N/A 30.65 1038 N/A 0 0
11:54 am 11:54 undefined 30 -1.1 9 -12.8 41 41 undefined N/A 30.62 1037 N/A 0 0
12:54 pm 12:54 undefined 32 0 11 -11.7 41 41 undefined N/A 30.57 1035 N/A 0 0
1:54 pm 13:54 undefined 33 0.6 13 -10.6 43 43 undefined N/A 30.53 1034 N/A 0 0
2:54 pm 14:54 undefined 33 0.6 14 -10 45 45 undefined N/A 30.5 1033 N/A 0 0
3:54 pm 15:54 undefined 33 0.6 12 -11.1 42 42 undefined N/A 30.48 1032 N/A 0 0
4:54 pm 16:54 undefined 33 0.6 13 -10.6 43 43 undefined N/A 30.46 1032 N/A 0 0
5:54 pm 17:54 undefined 32 0 14 -10 47 47 undefined N/A 30.46 1031 N/A 0 0
6:54 pm 18:54 undefined 32 0 15 -9.4 50 50 undefined N/A 30.43 1031 N/A 0 0
7:54 pm 19:54 undefined 32 0 15 -9.4 50 50 undefined N/A 30.42 1030 N/A 0 0
8:54 pm 20:54 undefined 32 0 15 -9.4 50 50 undefined N/A 30.4 1030 N/A 0 0
9:54 pm 21:54 undefined 32 0 15 -9.4 50 50 undefined N/A 30.37 1029 N/A 0 0
10:54 pm 22:54 undefined 32 0 16 -8.9 52 52 undefined N/A 30.35 1028 N/A 0 0
11:54 pm 23:54 undefined 32 0 17 -8.3 54 54 undefined N/A 30.33 1027 N/A 0 0

Powered by AerisWeather